Regional Weather Roundup
Issued by NWS San Diego, CA

Current Version | Previous Version | Text Only | Print | Product List | Glossary On
Versions: 1 2 3 4 5 6 7 8 9 10 11 12 13 14 15 16 17 18 19 20 21 22 23 24 25 26 27 28
000
ASUS46 KSGX 051711
RWRSGX

SAN DIEGO HOURLY WEATHER ROUNDUP
NATIONAL WEATHER SERVICE SAN DIEGO CA
1000 AM PDT THU MAY 05 2016

NOTE: "FAIR" INDICATES FEW OR NO CLOUDS BELOW 12,000 FEET WITH NO
SIGNIFICANT WEATHER AND/OR OBSTRUCTIONS TO VISIBILITY.

CAZ042-043-060-061-PZZ750-775-051800-

GREATER SAN DIEGO AREA

CITY           SKY/WX    TMP DP  RH WIND       PRES   REMARKS
LINDBERGH FLD  CLOUDY    63  52  67 SW9       29.95R
POINT LOMA       N/A     62  35  36 SE9         N/A
NATIONAL CITY    N/A     64  55  72 W6        29.94S
CHULA VISTA      N/A     64  56  74 W2        29.86R
IMPERIAL BEACH CLOUDY    67  53  61 S12       29.94R
BROWN FIELD    CLOUDY    64  46  52 W8        29.93S
MIRAMAR MCAS   PTSUNNY   66  48  52 CALM      29.93S
MONTGOMERY FLD CLOUDY    63  49  60 SW3       29.94R

$$

NORTH SAN DIEGO COUNTY

CITY           SKY/WX    TMP DP  RH WIND       PRES   REMARKS
CAMP PENDLETON PTSUNNY   65  53  65 CALM      29.92S
OCEANSIDE AP   CLOUDY    63  50  62 CALM      29.92S
OCEANSIDE HBR    N/A     63  55  75 S7        29.95S
VISTA            N/A     61  53  74 CALM      29.91S
CARLSBAD       CLOUDY    63  49  60 SE6       29.92S
DEL MAR          N/A     62  56  81 CALM      29.96S
LA JOLLA SCRIP   N/A     62  56  80 S3        29.93S
FALLBROOK        N/A     60  56  85 SE2       29.92F
ESCONDIDO        N/A     61  52  72 SW1       29.95R
SAN MARCOS       N/A     60  49  67 CALM      29.92R

$$

EAST SAN DIEGO COUNTY

CITY           SKY/WX    TMP DP  RH WIND       PRES   REMARKS
RAMONA         CLOUDY    58  48  69 S3        29.93S
SANTEE LAKES     N/A     64  52  65 SE3       29.92S
LA MESA          N/A     62  51  66 CALM      29.86S
JAMUL            N/A     61  48  62 CALM      29.93R
DESCANSO N       N/A     48  46  90 CALM      29.78R
MT. LAGUNA OBS   N/A     47  30  51 W7        29.54
CAMPO            N/A     53  42  66 W9        29.90S

$$

ORANGE COUNTY AND THE LOS ANGELES BASIN

CITY           SKY/WX    TMP DP  RH WIND       PRES   REMARKS
JOHN WAYNE AP  CLOUDY    63  54  72 SW8       29.92S
LAKE FOREST FR   N/A     61  49  63 CALM      29.82S
HUNTINGTON BCH   N/A     63  56  79 W3        29.94S
LOS ALAMITOS   FAIR      62  54  74 SW10      29.92S
FULLERTON      CLOUDY    61  32  33 S8        29.91S
L.A. AP        PTSUNNY   63  53  70 W7        29.92S
L.A. DOWNTOWN  CLOUDY    64  52  64 SW3       29.90F

$$

THE INLAND EMPIRE

CITY           SKY/WX    TMP DP  RH WIND       PRES   REMARKS
CORONA         CLOUDY    63  50  62 N3        29.92F
CHINO          CLOUDY    65  48  54 CALM      29.92F
ONTARIO        CLOUDY    60  47  61 SW3       29.91F
SAN BERNARDINO CLOUDY    61  50  67 N3        29.92F
RIVERSIDE AP   CLOUDY    62  49  62 CALM      29.91F
MORENO VALLEY    N/A     59  52  76 SW6       28.05F
MARCH ARB      CLOUDY    60  44  54 S8        29.91F
HORSETHIEF CYN   N/A     63  39  41 E2        29.92F
PERRIS           N/A     59  49  68 S7        29.90S
HEMET EAST       N/A     54  46  73 CALM      29.80S
FRENCH VALLEY  CLOUDY    59  46  63 SW7       29.93S
TEMECULA         N/A     60  52  74 S8        29.89S

$$

SAN BERNARDINO AND RIVERSIDE COUNTY MOUNTAINS

CITY           SKY/WX    TMP DP  RH WIND       PRES   REMARKS
BIG BEAR AP    SUNNY     54  19  26 W14       29.93F
ANGELUS OAKS     N/A     43  39  84 CALM      29.73S
PINE COVE        N/A     50  42  73 SE2       29.74F

$$

SOUTHERN DESERT INCLUDING THE COACHELLA VALLEY

CITY           SKY/WX    TMP DP  RH WIND       PRES   REMARKS
PALM SPRINGS   MOSUNNY   73  44  35 NW16G25   29.79S
THOUSAND PALMS   N/A     71  46  41 W21       29.77R
PALM DESERT      N/A     75  48  38 CALM      28.96R
THERMAL        MOSUNNY   75  42  30 NW14      29.76S
BLYTHE         PTSUNNY   79  44  28 S16       29.78S
IMPERIAL AP    MOSUNNY   75  45  34 W18G25    29.78S
EL CENTRO NAS  PTSUNNY   74  43  32 W26       29.80F
YUMA AZ        PTSUNNY   79  48  33 S12       29.80
MEXICALI       PTSUNNY   73  43  33 NW9       29.80

$$

UPPER DESERT

CITY           SKY/WX    TMP DP  RH WIND       PRES   REMARKS
VICTORVILLE AP MOSUNNY   57  43  58 CALM      29.88R
HESPERIA         N/A     56  46  68 W9        29.92R
PALMDALE       SUNNY     60  41  49 W18       29.86S
LANCASTER      SUNNY     61  40  45 SW21      29.87S
EDWARDS AFB    MOSUNNY   62  38  41 SW21      29.84S
DAGGETT        MOSUNNY   64  44  48 W17       29.84S
29 PALMS N     PTSUNNY   71  35  26 NW6       29.86S
NEEDLES        CLOUDY    85  30  13 S14G22    29.78R

$$

REGIONAL REPORTS

CITY           SKY/WX    TMP DP  RH WIND       PRES   REMARKS
SANTA BARBARA  MOSUNNY   62  54  74 S7        29.91S
SANDBERG       CLOUDY    49  39  68 S18G25    29.92S
LAS VEGAS NV   CLOUDY    76  34  21 E7        29.78F
PHOENIX AZ     MOSUNNY   86  30  13 SE10      29.84F
TIJUANA        CLOUDY    64  41  42 SE3       29.98R
ENSENADA NW      N/A     64  32  30 W2        29.93R

$$

OFFSHORE ISLANDS

CITY           SKY/WX    TMP DP  RH WIND       PRES   REMARKS
CATALINA ARPT  CLOUDY    56  48  74 W7        29.93S
SAN CLEMENTE I PTSUNNY   63  54  72 W5        29.94S
SAN NICOLAS IS PTSUNNY   60  53  77 SE8       29.92R

$$

MARINE AND OFFSHORE BUOY REPORTS

STATION/POSITION SKY/WX   TEMP    WIND        PRES    SWELL
                          AIR SEA DIR/SP/G            HT/PER/DIR
                          (F)     (DEG/KT/KT) (MB)    (FT/S/D)
TANNER BANKS               60 61   90/  4/  6 1013.2R   5/260/11
S CLEMENTE BASIN           61 62  190/  6/  6 1013.2S   3/190/14
SAN NICOLAS IS.               60                N/A     3/290/11
SO. S. ROSA ISLA           58 57  150/  4/  6 1012.9R   7/300/11
W. S. BARBARA CH           57 58  140/  4/  6 1012.4R   7/300/10
M. S. BARBARA CH           58 58  120/  2/  4 1013.4R
S. MONICA BASIN            60 60  110/  2/  2 1013.3S   3/170/15
S PEDRO CHANNEL               60                N/A     2/160/14
OCEANSIDE OFFSHR              64                N/A     3/210/12
TORREY PINES OTR              65                N/A     3/210/15
LA JOLLA 1                 62 66  240/  8/  9 1013.4R
SAN DIEGO BAY                 68              1013.7F
POINT LOMA SOUTH              64                N/A     3/180/14

$$





USA.gov is the U.S. government's official web portal to all federal, state and local government web resources and services.